Location: Kitt Peak
(31.9633°N, 111.6000°W)
Time: 06:07:49
(UTC-07:00)

Amateur Radio Satellites - All Passes

Search period start: 30 August 2016 05:37
Search period end: 31 August 2016 05:37
Location: Kitt Peak, 31.9633°N, 111.6000°W

Satellite Date Start Highest point End Downlink Frequencies (MHz)
Time Altitude Azimuth
Cosmos 2491 30 Aug 05:39:01 05:47:44 67° 268° (W) 05:56:27 435.465 / 435.565
AO-7 30 Aug 05:40:02 05:46:46 29° 298° (WNW) 05:53:30 29.400- 29.500
STRAND 1 30 Aug 05:51:20 05:54:12 15° 66° (ENE) 05:57:04 437.568
BRITE-PL 30 Aug 05:52:07 05:57:44 61° 100° (E) 06:03:05 437.365/2234.400
HORYU 2 30 Aug 06:01:43 06:05:49 39° 287° (WNW) 06:09:55 437.375
NOAA 18 30 Aug 06:08:38 06:13:20 29° 98° (E) 06:18:01 137.9125
RS-15 30 Aug 06:23:20 06:25:45 11° 12° (NNE) 06:28:10 29.354- 29.394
LilacSat-2 30 Aug 06:30:09 06:33:54 64° 101° (E) 06:37:38 437.200
Cubesat XI-IV 30 Aug 06:33:25 06:38:41 62° 101° (ESE) 06:43:56 437.490
PHONESAT 2.4 30 Aug 06:36:02 06:38:32 24° 215° (SW) 06:41:00 2401.200-2431.200
NOAA 15 30 Aug 06:36:18 06:41:38 87° 99° (E) 06:46:57 137.62
CUTE-I 30 Aug 06:44:19 06:49:38 81° 103° (ESE) 06:54:57 437.470
DOVE 4 30 Aug 06:44:49 06:49:17 35° 97° (E) 06:53:29 437.250
YUBILEINY 30 Aug 06:45:32 06:53:57 48° 281° (W) 07:02:25 435.215
HO-68 30 Aug 06:47:37 06:48:51 10° 91° (E) 06:50:06 435.675
ISS 30 Aug 06:47:55 06:51:10 82° 137° (SE) 06:54:28 145.825
GOMX 1 30 Aug 06:52:03 06:57:22 76° 284° (WNW) 07:02:20 467.674
Cosmos 2504 30 Aug 07:06:22 07:14:55 89° 102° (ESE) 07:22:54 435.465 / 435.565
CINEMA 3 30 Aug 07:06:35 07:08:30 13° 92° (E) 07:10:25 145.822/145.860
STRAND 1 30 Aug 07:27:58 07:32:54 51° 260° (W) 07:37:52 437.568
BRITE-PL 30 Aug 07:32:20 07:35:32 16° 295° (WNW) 07:38:39 437.365/2234.400
NOAA 18 30 Aug 07:49:15 07:53:51 29° 291° (WNW) 07:58:26 137.9125
SO-50 30 Aug 07:59:22 08:03:55 69° 61° (ENE) 08:08:20 436.795
SEEDS 30 Aug 08:09:09 08:13:06 38° 99° (E) 08:17:03 437.485
PRISM 30 Aug 08:13:04 08:16:59 47° 74° (ENE) 08:20:56 437.425
Cubesat XI-IV 30 Aug 08:15:39 08:18:11 14° 295° (WNW) 08:20:42 437.490
DOVE 4 30 Aug 08:23:16 08:26:36 19° 292° (WNW) 08:29:50 437.250
ISS 30 Aug 08:27:11 08:28:01 11° 330° (NNW) 08:28:51 145.825
CUTE-I 30 Aug 08:28:32 08:28:56 10° 297° (WNW) 08:29:20 437.470
HO-68 30 Aug 08:30:06 08:37:18 85° 105° (ESE) 08:44:27 435.675
UWE-3 30 Aug 08:31:45 08:34:53 21° 96° (E) 08:38:01 435.000/436.395/437.385
AAUSAT CUBESAT 2 30 Aug 08:31:52 08:35:45 37° 99° (E) 08:39:38 437.432
BEESAT 2 30 Aug 08:32:31 08:36:18 47° 114° (ESE) 08:40:06 435.950
RS-15 30 Aug 08:33:39 08:44:17 32° 45° (NE) 08:54:42 29.354- 29.394
CANX-2 30 Aug 08:36:35 08:40:42 51° 285° (WNW) 08:44:50 2200.000
CUBEBUG 2 30 Aug 08:39:41 08:43:40 42° 99° (E) 08:47:35 437.445
ZACube-1 30 Aug 08:40:09 08:42:41 16° 95° (E) 08:45:13 437.345
CINEMA 3 30 Aug 08:41:44 08:45:50 39° 287° (WNW) 08:49:46 145.822/145.860
CUTE 1.7 + AOD 2 30 Aug 08:42:06 08:46:12 51° 285° (WNW) 08:50:20 437.475
COMPASS 1 30 Aug 08:42:39 08:46:50 70° 102° (ESE) 08:51:00 437.405
BEESAT 3 30 Aug 08:44:38 08:48:25 51° 300° (WNW) 08:52:16 437.485
AIST 1 30 Aug 08:54:45 08:59:03 66° 277° (W) 09:03:24
ANTELSAT 30 Aug 08:57:51 09:00:21 15° 68° (ENE) 09:02:49 437.575/2403.000
JUGNU 30 Aug 09:04:17 09:08:24 19° 169° (SSE) 09:12:32 437.505
Cosmos 2504 30 Aug 09:05:09 09:09:02 14° 290° (WNW) 09:12:50 435.465 / 435.565
TIGRISAT 30 Aug 09:26:16 09:30:14 29° 72° (ENE) 09:34:08 435.000
DANDE 30 Aug 09:28:30 09:32:50 19° 76° (ENE) 09:37:47 436.750
Oscar 11 30 Aug 09:40:04 09:44:23 85° 285° (WNW) 09:48:43 145.826/435.025
CUSAT 1 30 Aug 09:44:24 09:51:27 67° 81° (E) 09:59:24 437.405
DELFI C3 30 Aug 09:45:32 09:49:20 40° 99° (E) 09:53:07 145.870
SEEDS 30 Aug 09:46:22 09:48:25 13° 291° (WNW) 09:50:28 437.485
FUNcube-1 30 Aug 09:51:45 09:55:50 64° 283° (WNW) 09:59:55 145.935
UNISAT 6 30 Aug 09:55:12 09:59:47 70° 76° (ENE) 10:04:18 437.425
Cosmos 2499 30 Aug 10:07:55 10:11:00 13° 82° (E) 10:14:01 435.465 / 435.565
UWE-3 30 Aug 10:08:00 10:11:15 22° 289° (WNW) 10:14:28 435.000/436.395/437.385
AAUSAT CUBESAT 2 30 Aug 10:08:47 10:10:51 14° 291° (WNW) 10:12:56 437.432
BEESAT 2 30 Aug 10:12:47 10:14:22 12° 309° (NW) 10:15:56 435.950
ZACube-1 30 Aug 10:15:23 10:18:59 29° 287° (WNW) 10:22:34 437.345
CUBEBUG 2 30 Aug 10:18:25 10:19:51 12° 293° (WNW) 10:21:16 437.445
HO-68 30 Aug 10:20:23 10:24:04 15° 301° (WNW) 10:27:44 435.675
DUCHIFAT 1 30 Aug 10:27:48 10:30:29 16° 69° (ENE) 10:33:09 145.980
ANTELSAT 30 Aug 10:32:18 10:36:40 42° 261° (W) 10:40:58 437.575/2403.000
QB50P2 30 Aug 10:34:04 10:37:31 24° 71° (ENE) 10:40:58 145.880/145.840
HUMSAT D 30 Aug 10:34:40 10:38:45 78° 100° (E) 10:42:52 437.325/437.525
POLYITAN 1 30 Aug 10:36:33 10:40:01 25° 71° (ENE) 10:43:29 437.675
PCSat 30 Aug 10:40:00 10:45:24 78° 113° (ESE) 10:50:50 145.827
NANOSAT C BR1 30 Aug 10:42:09 10:45:43 26° 72° (ENE) 10:49:16 145.865
RS-15 30 Aug 10:45:35 10:57:54 75° 247° (WSW) 11:09:50 29.354- 29.394
SRMSAT 30 Aug 10:47:37 10:51:02 16° 165° (SSE) 10:54:27 437.500
JUGNU 30 Aug 10:52:04 10:56:52 25° 179° (S) 11:01:40 437.505
GONETS M04 30 Aug 11:01:07 11:09:26 51° 90° (E) 11:17:50
TIGRISAT 30 Aug 11:03:27 11:06:51 20° 264° (W) 11:10:13 435.000
CUBEBUG 1 30 Aug 11:06:20 11:08:43 14° 94° (E) 11:11:03 437.445
AIST 2 30 Aug 11:09:19 11:13:23 81° 297° (WNW) 11:17:31 435.215
DANDE 30 Aug 11:09:25 11:15:34 63° 264° (W) 11:23:13 436.750
BUGSAT 1 30 Aug 11:09:42 11:12:54 21° 70° (ENE) 11:16:05 437.445
VELOX 1 30 Aug 11:12:33 11:14:40 13° 94° (E) 11:16:46 145.980
50 SAT 30 Aug 11:19:39 11:21:35 14° 95° (E) 11:23:30 437.505
DELFI C3 30 Aug 11:22:20 11:23:46 12° 292° (WNW) 11:25:11 145.870
QB50P1 30 Aug 11:27:14 11:31:29 77° 257° (WSW) 11:35:47 145.935-145.965
CUSAT 1 30 Aug 11:27:58 11:33:02 21° 272° (W) 11:38:27 437.405
POPSAT HIP 1 30 Aug 11:37:38 11:41:50 57° 260° (W) 11:46:03 437.405
O/OREOS (USA 219) 30 Aug 11:47:02 11:49:04 13° 99° (E) 11:51:06 437.305
AUBIESAT-1 30 Aug 11:48:11 11:52:02 83° 107° (ESE) 11:55:35 437.475
JAS-2 30 Aug 11:49:37 11:54:45 73° 75° (ENE) 12:00:13 435.910
UKube-1 30 Aug 11:52:58 11:56:07 20° 96° (E) 11:59:15 .
Cosmos 2499 30 Aug 11:54:54 12:03:12 88° 279° (W) 12:10:51 435.465 / 435.565
M-CUBED/EXP-1 PRIME 30 Aug 11:56:40 12:00:31 56° 289° (WNW) 12:04:04 437.505
Oscar 19 30 Aug 11:59:28 12:02:23 15° 66° (ENE) 12:05:19 437.125/150
AISAT 30 Aug 11:59:54 12:04:16 54° 100° (E) 12:08:36 437.250
DUCHIFAT 1 30 Aug 12:02:05 12:05:53 32° 262° (W) 12:09:41 145.980
ESTCUBE 1 30 Aug 12:04:25 12:08:55 67° 284° (WNW) 12:13:25 437.505/2401.250
QB50P2 30 Aug 12:09:56 12:13:12 21° 264° (W) 12:16:29 145.880/145.840
POLYITAN 1 30 Aug 12:12:27 12:15:43 21° 264° (W) 12:18:58 437.675
NANOSAT C BR1 30 Aug 12:18:17 12:21:22 19° 264° (W) 12:24:27 145.865
PCSat 30 Aug 12:27:01 12:29:22 13° 310° (NW) 12:31:45 145.827
SRMSAT 30 Aug 12:34:57 12:39:36 24° 175° (S) 12:44:14 437.500
JUGNU 30 Aug 12:40:53 12:45:20 22° 189° (S) 12:49:46 437.505
CUBEBUG 1 30 Aug 12:40:59 12:45:05 38° 287° (WNW) 12:49:08 437.445
SPROUT 30 Aug 12:43:36 12:47:54 87° 106° (ESE) 12:52:08 437.525
BUGSAT 1 30 Aug 12:44:35 12:48:05 25° 263° (W) 12:51:35 437.445
VELOX 1 30 Aug 12:47:04 12:51:16 42° 286° (WNW) 12:55:26 145.980
50 SAT 30 Aug 12:52:03 12:55:07 26° 287° (WNW) 12:58:12 437.505
TISAT 1 30 Aug 12:52:20 12:55:13 18° 95° (E) 12:58:06 437.305
DX 1 30 Aug 12:53:32 12:57:49 54° 286° (WNW) 13:02:03 434.975-435.025
GONETS M04 30 Aug 12:59:13 13:06:28 29° 286° (WNW) 13:13:48
RS-15 30 Aug 13:03:37 13:08:12 13° 263° (W) 13:12:46 29.354- 29.394
ISS 30 Aug 13:21:04 13:22:16 12° 31° (NNE) 13:23:29 145.825
ITAMSAT 1 30 Aug 13:21:37 13:23:32 12° 64° (ENE) 13:25:28 435.822/435.867
O/OREOS (USA 219) 30 Aug 13:23:46 13:28:00 42° 292° (WNW) 13:32:18 437.305
UKube-1 30 Aug 13:28:26 13:32:05 27° 289° (WNW) 13:35:43 .
Gurwin Techsat 1B 30 Aug 13:32:26 13:37:40 61° 74° (ENE) 13:42:54 435.225
Oscar 19 30 Aug 13:36:12 13:41:11 52° 259° (W) 13:46:16 437.125/150
AO-85 30 Aug 13:38:30 13:42:35 57° 60° (ENE) 13:46:24 145.980
AISAT 30 Aug 13:39:02 13:40:13 11° 294° (WNW) 13:41:22 437.250
Cosmos 2499 30 Aug 13:54:05 13:57:02 12° 290° (WNW) 13:59:57 435.465 / 435.565
SWISSCUBE 30 Aug 13:54:23 13:57:47 19° 96° (E) 14:01:11 437.505
BEESAT 30 Aug 14:10:39 14:14:38 26° 97° (E) 14:18:36 436.000
SRMSAT 30 Aug 14:23:35 14:28:13 24° 185° (S) 14:32:50 437.500
TISAT 1 30 Aug 14:27:17 14:30:50 27° 288° (WNW) 14:34:20 437.305
JUGNU 30 Aug 14:31:27 14:33:42 12° 198° (SSW) 14:35:57 437.505
AO-7 30 Aug 14:39:54 14:47:49 49° 67° (ENE) 14:55:43 29.400- 29.500
ISS 30 Aug 14:55:48 14:59:04 72° 227° (SW) 15:02:18 145.825
ITAMSAT 1 30 Aug 14:57:14 15:02:23 67° 258° (WSW) 15:07:32 435.822/435.867
ITUPSAT 1 30 Aug 14:59:37 15:04:24 87° 287° (WNW) 15:09:11 437.325
Gurwin Techsat 1B 30 Aug 15:15:46 15:17:55 12° 267° (W) 15:20:05 435.225
SWISSCUBE 30 Aug 15:31:19 15:35:35 33° 289° (WNW) 15:39:50 437.505
MOZHAYETS 4 30 Aug 15:32:30 15:36:26 28° 97° (E) 15:40:23
BEESAT 30 Aug 15:48:26 15:52:16 25° 290° (WNW) 15:56:06 436.000
SRMSAT 30 Aug 16:13:22 16:16:46 16° 195° (SSW) 16:20:10 437.500
AO-7 30 Aug 16:33:31 16:40:39 31° 261° (W) 16:47:49 29.400- 29.500
Cosmos 2491 30 Aug 16:38:55 16:46:02 29° 85° (E) 16:53:09 435.465 / 435.565
KKS-1 30 Aug 16:39:14 16:43:38 63° 285° (WNW) 16:47:59 437.445
HORYU 2 30 Aug 16:54:13 16:58:42 82° 258° (WSW) 17:03:09 437.375
BRITE-PL 30 Aug 16:57:49 17:02:18 38° 72° (ENE) 17:07:07 437.365/2234.400
CUBESAT XI-V 30 Aug 17:01:18 17:05:30 32° 97° (E) 17:09:42 437.345
YUBILEINY 30 Aug 17:01:23 17:10:07 69° 82° (E) 17:18:45 435.215
STARS 30 Aug 17:05:58 17:10:20 66° 284° (WNW) 17:14:38 437.465
Cosmos 2504 30 Aug 17:06:33 17:11:42 21° 73° (ENE) 17:16:50 435.465 / 435.565
BEESAT 3 30 Aug 17:06:55 17:09:45 19° 54° (NE) 17:12:35 437.485
LilacSat-2 30 Aug 17:08:33 17:10:55 16° 71° (ENE) 17:13:17 437.200
MOZHAYETS 4 30 Aug 17:09:56 17:13:23 21° 290° (WNW) 17:16:51
NOAA 18 30 Aug 17:29:59 17:34:59 36° 70° (ENE) 17:39:59 137.9125
DOVE 4 30 Aug 17:44:56 17:49:01 24° 69° (ENE) 17:53:10 437.250
Cubesat XI-IV 30 Aug 17:50:29 17:55:45 63° 74° (ENE) 18:01:01 437.490
NOAA 15 30 Aug 17:51:25 17:56:39 85° 78° (ENE) 18:01:57 137.62
GOMX 1 30 Aug 17:54:09 17:59:09 67° 76° (ENE) 18:04:30 467.674
CUTE-I 30 Aug 18:01:11 18:06:30 82° 76° (ENE) 18:11:50 437.470
BEESAT 2 30 Aug 18:32:20 18:36:20 87° 249° (WSW) 18:40:19 435.950
Cosmos 2491 30 Aug 18:34:02 18:42:21 49° 281° (W) 18:50:46 435.465 / 435.565
BRITE-PL 30 Aug 18:37:34 18:40:55 18° 268° (W) 18:44:26 437.365/2234.400
CUBESAT XI-V 30 Aug 18:39:13 18:42:37 20° 291° (WNW) 18:46:02 437.345
LilacSat-2 30 Aug 18:41:45 18:44:58 25° 263° (W) 18:48:12 437.200
BEESAT 3 30 Aug 18:44:01 18:47:24 27° 248° (WSW) 18:50:46 437.485
HO-68 30 Aug 18:53:28 18:59:59 39° 68° (ENE) 19:06:32 435.675
SEEDS 30 Aug 18:57:31 18:59:50 15° 69° (ENE) 19:02:09 437.485
Cosmos 2504 30 Aug 18:58:27 19:05:21 53° 269° (W) 19:12:19 435.465 / 435.565
YUBILEINY 30 Aug 19:00:14 19:05:58 20° 278° (W) 19:11:40 435.215
AIST 1 30 Aug 19:07:45 19:10:51 19° 76° (ENE) 19:13:55
NOAA 18 30 Aug 19:11:15 19:15:38 24° 263° (W) 19:20:01 137.9125
AAUSAT CUBESAT 2 30 Aug 19:18:58 19:21:00 13° 69° (ENE) 19:23:01 437.432
DOVE 4 30 Aug 19:21:48 19:26:25 34° 263° (W) 19:31:12 437.250
CANX-2 30 Aug 19:24:08 19:28:14 56° 76° (ENE) 19:32:22 2200.000
UWE-3 30 Aug 19:25:57 19:27:14 11° 67° (ENE) 19:28:31 435.000/436.395/437.385
COMPASS 1 30 Aug 19:29:06 19:32:24 24° 72° (ENE) 19:35:42 437.405
CUTE 1.7 + AOD 2 30 Aug 19:29:32 19:33:38 56° 76° (ENE) 19:37:44 437.475
CUBEBUG 2 30 Aug 19:33:08 19:36:43 22° 71° (ENE) 19:40:16 437.445
PCSat 30 Aug 19:33:32 19:37:48 23° 56° (NE) 19:42:02 145.827
Cubesat XI-IV 30 Aug 19:34:06 19:36:08 12° 267° (W) 19:38:11 437.490
AIST 2 30 Aug 19:36:15 19:38:52 16° 53° (NE) 19:41:29 435.215
GOMX 1 30 Aug 19:36:21 19:37:42 11° 270° (W) 19:39:03 467.674
CINEMA 3 30 Aug 19:36:54 19:41:56 84° 259° (WSW) 19:46:55 145.822/145.860
STRAND 1 30 Aug 19:43:08 19:48:15 82° 103° (ESE) 19:53:22 437.568
DELFI C3 30 Aug 20:28:38 20:30:15 12° 68° (ENE) 20:31:50 145.870
Oscar 11 30 Aug 20:29:57 20:33:56 38° 73° (ENE) 20:37:54 145.826/435.025
SEEDS 30 Aug 20:31:27 20:35:12 33° 262° (W) 20:39:00 437.485
HO-68 30 Aug 20:41:19 20:47:37 33° 262° (W) 20:53:58 435.675
FUNcube-1 30 Aug 20:41:54 20:46:12 51° 76° (ENE) 20:50:25 145.935
AIST 1 30 Aug 20:44:43 20:48:23 26° 270° (W) 20:52:01
AAUSAT CUBESAT 2 30 Aug 20:52:20 20:56:06 36° 262° (W) 20:59:54 437.432
UWE-3 30 Aug 20:58:42 21:03:12 55° 260° (W) 21:07:36 435.000/436.395/437.385
COMPASS 1 30 Aug 21:04:50 21:07:51 20° 265° (W) 21:10:54 437.405
ZACube-1 30 Aug 21:05:14 21:09:42 76° 259° (W) 21:14:05 437.345
CUBEBUG 2 30 Aug 21:09:09 21:13:09 28° 263° (W) 21:17:05 437.445
AIST 2 30 Aug 21:13:35 21:17:28 38° 247° (WSW) 21:21:20 435.215
PCSat 30 Aug 21:16:16 21:21:17 39° 251° (WSW) 21:26:16 145.827
GONETS M04 30 Aug 21:18:59 21:24:52 19° 70° (ENE) 21:30:42
HUMSAT D 30 Aug 21:21:26 21:24:56 27° 72° (ENE) 21:28:26 437.325/437.525
PRISM 30 Aug 21:34:19 21:38:22 50° 286° (WNW) 21:42:24 437.425
UNISAT 6 30 Aug 21:52:46 21:55:53 20° 96° (E) 21:58:59 437.425
Cosmos 2499 30 Aug 21:53:10 21:58:17 21° 74° (ENE) 22:03:29 435.465 / 435.565
O/OREOS (USA 219) 30 Aug 22:01:04 22:03:10 13° 60° (ENE) 22:05:16 437.305
DELFI C3 30 Aug 22:01:05 22:04:42 36° 262° (W) 22:08:21 145.870
Oscar 11 30 Aug 22:08:02 22:10:09 13° 266° (W) 22:12:16 145.826/435.025
SO-50 30 Aug 22:08:11 22:13:02 73° 116° (ESE) 22:17:52 436.795
FUNcube-1 30 Aug 22:21:46 22:22:37 10° 267° (W) 22:23:27 145.935
AUBIESAT-1 30 Aug 22:28:13 22:32:39 48° 70° (ENE) 22:37:06 437.475
ANTELSAT 30 Aug 22:28:41 22:32:52 55° 100° (E) 22:37:03 437.575/2403.000
M-CUBED/EXP-1 PRIME 30 Aug 22:36:48 22:41:28 76° 72° (ENE) 22:46:10 437.505
CUSAT 1 30 Aug 22:44:42 22:47:32 80° 98° (E) 22:51:04 437.405
RS-15 30 Aug 22:52:39 23:01:26 27° 102° (ESE) 23:10:29 29.354- 29.394
AISAT 30 Aug 22:52:46 22:56:28 26° 71° (ENE) 23:00:12 437.250
HUMSAT D 30 Aug 22:57:41 23:00:30 18° 265° (W) 23:03:18 437.325/437.525
TIGRISAT 30 Aug 22:58:34 23:02:46 64° 285° (WNW) 23:06:58 435.000
ESTCUBE 1 30 Aug 22:58:49 23:03:12 59° 75° (ENE) 23:07:37 437.505/2401.250
PHONESAT 2.4 30 Aug 23:01:03 23:03:56 44° 148° (SSE) 23:06:49 2401.200-2431.200
JAS-2 30 Aug 23:04:13 23:08:21 16° 93° (E) 23:12:35 435.910
GONETS M04 30 Aug 23:13:37 23:22:27 74° 267° (W) 23:31:12
QB50P1 30 Aug 23:17:25 23:20:50 24° 97° (E) 23:24:14 145.935-145.965
50 SAT 30 Aug 23:23:45 23:27:14 56° 76° (ENE) 23:30:45 437.505
POPSAT HIP 1 30 Aug 23:27:31 23:31:16 31° 98° (E) 23:34:59 437.405
UNISAT 6 30 Aug 23:29:02 23:32:32 25° 289° (WNW) 23:36:02 437.425
CUBEBUG 1 30 Aug 23:31:20 23:35:43 88° 258° (WSW) 23:40:10 437.445
SPROUT 30 Aug 23:32:18 23:36:11 34° 73° (ENE) 23:40:04 437.525
O/OREOS (USA 219) 30 Aug 23:38:23 23:42:50 50° 255° (WSW) 23:47:16 437.305
VELOX 1 30 Aug 23:38:51 23:43:17 90° 209° (SSW) 23:47:46 145.980
DX 1 30 Aug 23:43:45 23:48:04 67° 75° (ENE) 23:52:26 434.975-435.025
Cosmos 2499 30 Aug 23:44:50 23:51:37 52° 269° (W) 23:58:39 435.465 / 435.565
DUCHIFAT 1 30 Aug 23:50:31 23:54:38 55° 101° (E) 23:58:42 145.980
SO-50 30 Aug 23:51:55 23:53:58 12° 312° (NW) 23:56:02 436.795
QB50P2 30 Aug 23:58:30 00:02:44 89° 122° (ESE) 00:06:55 145.880/145.840
POLYITAN 1 31 Aug 00:01:00 00:05:12 90° 331° (NNW) 00:09:23 437.675
AUBIESAT-1 31 Aug 00:04:50 00:07:12 14° 262° (W) 00:09:36 437.475
NANOSAT C BR1 31 Aug 00:06:07 00:10:19 84° 283° (WNW) 00:14:29 145.865
UKube-1 31 Aug 00:17:13 00:21:28 61° 259° (WSW) 00:25:46 .
DANDE 31 Aug 00:18:01 00:19:28 14° 286° (WNW) 00:20:58 436.750
AISAT 31 Aug 00:29:27 00:32:50 21° 264° (W) 00:36:16 437.250
BUGSAT 1 31 Aug 00:30:27 00:34:33 68° 102° (ESE) 00:38:33 437.445
PHONESAT 2.4 31 Aug 00:37:41 00:40:21 28° 342° (NNW) 00:43:00 2401.200-2431.200
JAS-2 31 Aug 00:46:28 00:53:40 82° 285° (WNW) 01:01:27 435.910
QB50P1 31 Aug 00:53:18 00:56:26 21° 290° (WNW) 00:59:33 145.935-145.965
SWISSCUBE 31 Aug 00:57:26 00:59:43 13° 66° (ENE) 01:01:59 437.505
RS-15 31 Aug 01:01:16 01:12:39 71° 300° (WNW) 01:24:44 29.354- 29.394
POPSAT HIP 1 31 Aug 01:04:10 01:06:45 16° 291° (WNW) 01:09:20 437.405
SPROUT 31 Aug 01:09:37 01:12:10 15° 266° (W) 01:14:43 437.525
TISAT 1 31 Aug 01:13:03 01:17:17 72° 259° (WSW) 01:21:32 437.305
BEESAT 31 Aug 01:13:06 01:16:18 18° 68° (ENE) 01:19:31 436.000
Oscar 19 31 Aug 01:52:29 01:57:43 84° 105° (ESE) 02:02:54 437.125/150
Gurwin Techsat 1B 31 Aug 01:53:52 01:58:44 36° 98° (E) 02:03:35 435.225
ITUPSAT 1 31 Aug 02:01:21 02:06:02 62° 75° (ENE) 02:10:44 437.325
PHONESAT 2.4 31 Aug 02:15:19 02:17:16 16° 359° (N) 02:19:12 2401.200-2431.200
MOZHAYETS 4 31 Aug 02:30:45 02:33:29 16° 68° (ENE) 02:36:12
SWISSCUBE 31 Aug 02:32:26 02:37:01 50° 260° (W) 02:41:38 437.505
JAS-2 31 Aug 02:34:49 02:37:47 13° 298° (WNW) 02:40:51 435.910
AO-7 31 Aug 02:48:29 02:54:11 20° 95° (E) 02:59:50 29.400- 29.500
BEESAT 31 Aug 02:49:24 02:53:45 36° 261° (W) 02:58:08 436.000
ITAMSAT 1 31 Aug 03:14:57 03:20:06 66° 102° (ESE) 03:25:15 435.822/435.867
RS-15 31 Aug 03:19:49 03:27:48 20° 326° (NW) 03:36:03 29.354- 29.394
KKS-1 31 Aug 03:32:00 03:36:26 63° 75° (ENE) 03:40:52 437.445
Gurwin Techsat 1B 31 Aug 03:34:22 03:38:24 22° 292° (WNW) 03:42:26 435.225
AO-85 31 Aug 03:46:31 03:51:51 69° 115° (ESE) 03:56:57 145.980
PHONESAT 2.4 31 Aug 03:51:41 03:54:13 24° 16° (NNE) 03:56:44 2401.200-2431.200
STARS 31 Aug 03:57:22 04:01:42 57° 75° (ENE) 04:06:03 437.465
CUBESAT XI-V 31 Aug 04:00:43 04:03:50 18° 69° (ENE) 04:06:57 437.345
YUBILEINY 31 Aug 04:04:54 04:08:50 14° 79° (E) 04:12:46 435.215
MOZHAYETS 4 31 Aug 04:06:02 04:10:17 38° 261° (W) 04:14:32
AO-7 31 Aug 04:39:11 04:47:25 70° 290° (WNW) 04:55:37 29.400- 29.500
Cosmos 2491 31 Aug 04:49:54 04:58:43 68° 83° (E) 05:07:29 435.465 / 435.565
HORYU 2 31 Aug 04:50:27 04:54:12 27° 98° (E) 04:57:55 437.375
ITAMSAT 1 31 Aug 04:56:59 04:58:57 12° 296° (WNW) 05:00:55 435.822/435.867
BRITE-PL 31 Aug 05:08:06 05:12:20 22° 93° (E) 05:16:26 437.365/2234.400
PHONESAT 2.4 31 Aug 05:27:45 05:30:42 61° 210° (SSW) 05:33:39 2401.200-2431.200
AO-85 31 Aug 05:29:45 05:32:42 15° 310° (NW) 05:35:33 145.980
